Location: La Junie
(44.7428°N, 2.1773°E)
Time: 07:46:00
(UTC+00:00)

Cosmos 1428 Rocket - Pass Details

Date: 15 May 2026
Orbit: 946 x 987 km, 82.9° (Epoch: 5 June)

Event Time Altitude Azimuth Distance (km) Brightness Sun altitude
Rises 21:30:31 0° 353° (N) 3,676 8.6 -19.0°
Reaches altitude 10° 21:33:03 10° 355° (N) 2,719 7.7 -19.2°
Maximum altitude 21:39:17 75° 80° (E) 996 4.4 -19.8°
Enters shadow 21:42:00 35° 159° (SSE) 1,488 4.9 -20.1°
